Regional Weather Roundup
Issued by NWS Sioux Falls, SD

Home | Current Version | Previous Version | Text Only | Print | Product List | Glossary On
Versions: 1 2 3 4 5 6 7 8 9 10 11 12 13 14 15 16 17 18 19 20 21 22 23 24 25 26 27 28 29 30 31 32 33 34 35 36 37 38 39 40 41 42 43 44 45 46 47 48 49 50
606
ASUS43 KFSD 240010
RWRFSD

WEATHER ROUNDUP FOR SE SOUTH DAKOTA/SW MINNESOTA/NW IOWA
NATIONAL WEATHER SERVICE SIOUX FALLS SD
700 PM CDT THU MAR 23 2017

NOTE: "FAIR" INDICATES FEW OR NO CLOUDS BELOW 12,000 FEET WITH NO
SIGNIFICANT WEATHER AND OR OBSTRUCTIONS TO VISIBILITY.


SDZ038>040-050-052>070-240100-
SOUTHEAST SOUTH DAKOTA

CITY           SKY/WX    TMP DP  RH WIND       PRES   REMARKS
BROOKINGS      LGT RAIN  41  39  93 SE9       29.69S
CHAMBERLAIN    PTCLDY    55  52  90 E5        29.66R
6HR MIN TEMP:  53; 6HR MAX TEMP:  57;

HURON          CLOUDY    44  43  96 NE6       29.69R
6HR MIN TEMP:  44; 6HR MAX TEMP:  47;

MADISON        CLOUDY    39  39 100 E7        29.68S
MITCHELL       CLOUDY    50  46  86 E5        29.66R
6HR MIN TEMP:  46; 6HR MAX TEMP:  52;

SIOUX FALLS    CLOUDY    48  41  76 E8        29.67F
6HR MIN TEMP:  42; 6HR MAX TEMP:  51; 6HR PCP: TRACE;

WINNER         FAIR      61  48  62 E7        29.62R
YANKTON        CLOUDY    57  48  72 E7        29.62F
$$

MNZ071-072-080-081-089-090-097-098-240100-
SOUTHWEST MINNESOTA

CITY           SKY/WX    TMP DP  RH WIND       PRES   REMARKS
FAIRMONT       CLOUDY    41  35  79 SE16      29.78R
JACKSON        CLOUDY    41  34  75 SE13      29.74F
LUVERNE        CLOUDY    43  36  75 E6        29.70F
MARSHALL       LGT RAIN  38  36  92 SE10      29.74F
6HR MIN TEMP:  38; 6HR MAX TEMP:  43; 6HR PCP:  0.02;

MONTEVIDEO     CLOUDY    37  37 100 S10G16    29.78S FOG
PIPESTONE      DRIZZLE   43  36  75 SE7       29.69S
REDWOOD FALLS  CLOUDY    38  33  82 SE13      29.77S
TRACY          CLOUDY    40  37  88 E6        29.74S
WINDOM         MOCLDY    43  36  75 E7        29.74F
WORTHINGTON    CLOUDY    42  36  79 SE7       29.73R
$$

IAZ001>003-012>014-020>022-031-032-NEZ013-014-SDZ071-240100-
NORTHWEST IOWA

CITY           SKY/WX    TMP DP  RH WIND       PRES   REMARKS
CHEROKEE       CLOUDY    52  42  67 SE10G17   29.71R
DENISON        CLOUDY    59  41  51 E13G22    29.66F
ESTHERVILLE    MOCLDY    40  37  89 E12       29.75F
LE MARS        CLOUDY    57  45  62 SE14      29.66F
ORANGE CITY    PTCLDY    54  46  76 SE6       29.66F
SHELDON        CLOUDY    48  48 100 SE8       29.68S
SIOUX CITY     CLOUDY    58  46  64 SE14      29.64F
6HR MIN TEMP:  51; 6HR MAX TEMP:  62; 6HR PCP:  0.01;

SPENCER        CLOUDY    49  41  74 SE13      29.72S
6HR MIN TEMP:  39; 6HR MAX TEMP:  50; 6HR PCP: TRACE;

STORM LAKE     CLOUDY    50  41  71 SE13      29.72R
$$

ABBREVIATIONS USED IN REMARKS
   TC - TEMPERATURE IN CELSIUS
  WCI - WIND CHILL INDEX
   HX - HEAT INDEX
  VSB - VISIBILITY





USA.gov is the U.S. government's official web portal to all federal, state and local government web resources and services.